Year,Month,Day,Hour,Minute,Value (Times are PST for temperature in C)
2007,02,24,00,00,4.10
2007,02,24,00,01,4.10
2007,02,24,00,02,4.10
2007,02,24,00,03,4.10
2007,02,24,00,04,4.10
2007,02,24,00,05,4.10
2007,02,24,00,06,4.10
2007,02,24,00,07,4.10
2007,02,24,00,08,4.10
2007,02,24,00,09,4.10
2007,02,24,00,10,4.10
2007,02,24,00,11,4.10
2007,02,24,00,12,4.10
2007,02,24,00,13,4.10
2007,02,24,00,14,4.10
2007,02,24,00,15,4.10
2007,02,24,00,16,4.10
2007,02,24,00,17,4.10
2007,02,24,00,18,4.10
2007,02,24,00,19,4.10
2007,02,24,00,20,4.10
2007,02,24,00,21,4.10
2007,02,24,00,22,4.10
2007,02,24,00,23,4.10
2007,02,24,00,24,4.10
2007,02,24,00,25,4.10
2007,02,24,00,26,4.10
2007,02,24,00,27,4.10
2007,02,24,00,28,4.10
2007,02,24,00,29,4.10
2007,02,24,00,30,4.10
2007,02,24,00,31,4.10
2007,02,24,00,32,4.20
2007,02,24,00,33,4.20
2007,02,24,00,34,4.20
2007,02,24,00,35,4.20
2007,02,24,00,36,4.20
2007,02,24,00,37,4.20
2007,02,24,00,38,4.20
2007,02,24,00,39,4.20
2007,02,24,00,40,4.20
2007,02,24,00,41,4.20
2007,02,24,00,42,4.20
2007,02,24,00,43,4.20
2007,02,24,00,44,4.20
2007,02,24,00,45,4.20
2007,02,24,00,46,4.20
2007,02,24,00,47,4.20
2007,02,24,00,48,4.20
2007,02,24,00,49,4.20
2007,02,24,00,50,4.20
2007,02,24,00,51,4.20
2007,02,24,00,52,4.30
2007,02,24,00,53,4.30
2007,02,24,00,54,4.30
2007,02,24,00,55,4.30
2007,02,24,00,56,4.30
2007,02,24,00,57,4.30
2007,02,24,00,58,4.30
2007,02,24,00,59,4.30
2007,02,24,01,00,4.30
2007,02,24,01,01,4.30
2007,02,24,01,02,4.30
2007,02,24,01,03,4.30
2007,02,24,01,04,4.20
2007,02,24,01,05,4.20
2007,02,24,01,06,4.20
2007,02,24,01,07,4.20
2007,02,24,01,08,4.20
2007,02,24,01,09,4.20
2007,02,24,01,10,4.20
2007,02,24,01,11,4.20
2007,02,24,01,12,4.20
2007,02,24,01,13,4.20
2007,02,24,01,14,4.20
2007,02,24,01,15,4.20
2007,02,24,01,16,4.20
2007,02,24,01,17,4.20
2007,02,24,01,18,4.20
2007,02,24,01,19,4.20
2007,02,24,01,20,4.20
2007,02,24,01,21,4.30
2007,02,24,01,22,4.30
2007,02,24,01,23,4.30
2007,02,24,01,24,4.30
2007,02,24,01,25,4.30
2007,02,24,01,26,4.30
2007,02,24,01,27,4.30
2007,02,24,01,28,4.40
2007,02,24,01,29,4.40
2007,02,24,01,30,4.40
2007,02,24,01,31,4.40
2007,02,24,01,32,4.40
2007,02,24,01,33,4.50
2007,02,24,01,34,4.50
2007,02,24,01,35,4.50
2007,02,24,01,36,4.50
2007,02,24,01,37,4.50
2007,02,24,01,38,4.60
2007,02,24,01,39,4.60
2007,02,24,01,40,4.60
2007,02,24,01,41,4.60
2007,02,24,01,42,4.60
2007,02,24,01,43,4.60
2007,02,24,01,44,4.60
2007,02,24,01,45,4.60
2007,02,24,01,46,4.60
2007,02,24,01,47,4.60
2007,02,24,01,48,4.70
2007,02,24,01,49,4.70
2007,02,24,01,50,4.70
2007,02,24,01,51,4.70
2007,02,24,01,52,4.80
2007,02,24,01,53,4.80
2007,02,24,01,54,4.80
2007,02,24,01,55,4.80
2007,02,24,01,56,4.80
2007,02,24,01,57,4.80
2007,02,24,01,58,4.80
2007,02,24,01,59,4.80
2007,02,24,02,00,4.80
2007,02,24,02,01,4.90
2007,02,24,02,02,4.90
2007,02,24,02,03,4.90
2007,02,24,02,04,4.90
2007,02,24,02,05,4.90
2007,02,24,02,06,4.90
2007,02,24,02,07,4.90
2007,02,24,02,08,4.90
2007,02,24,02,09,4.90
2007,02,24,02,10,4.90
2007,02,24,02,11,4.90
2007,02,24,02,12,4.90
2007,02,24,02,13,4.90
2007,02,24,02,14,4.90
2007,02,24,02,15,4.90
2007,02,24,02,16,4.90
2007,02,24,02,17,4.90
2007,02,24,02,18,4.90
2007,02,24,02,19,4.90
2007,02,24,02,20,4.90
2007,02,24,02,21,5.00
2007,02,24,02,22,5.00
2007,02,24,02,23,5.00
2007,02,24,02,24,5.10
2007,02,24,02,25,5.10
2007,02,24,02,26,5.10
2007,02,24,02,27,5.10
2007,02,24,02,28,5.10
2007,02,24,02,29,5.10
2007,02,24,02,30,5.10
2007,02,24,02,31,5.10
2007,02,24,02,32,5.10
2007,02,24,02,33,5.10
2007,02,24,02,34,5.10
2007,02,24,02,35,5.10
2007,02,24,02,36,5.10
2007,02,24,02,37,5.10
2007,02,24,02,38,5.10
2007,02,24,02,39,5.10
2007,02,24,02,40,5.10
2007,02,24,02,41,5.10
2007,02,24,02,42,5.00
2007,02,24,02,43,5.00
2007,02,24,02,44,5.00
2007,02,24,02,45,5.10
2007,02,24,02,46,5.10
2007,02,24,02,47,5.10
2007,02,24,02,48,5.10
2007,02,24,02,49,5.10
2007,02,24,02,50,5.10
2007,02,24,02,51,5.10
2007,02,24,02,52,5.10
2007,02,24,02,53,5.10
2007,02,24,02,54,5.10
2007,02,24,02,55,5.10
2007,02,24,02,56,5.10
2007,02,24,02,57,5.10
2007,02,24,02,58,5.10
2007,02,24,02,59,5.10
2007,02,24,03,00,5.10
2007,02,24,03,01,5.20
2007,02,24,03,02,5.20
2007,02,24,03,03,5.20
2007,02,24,03,04,5.20
2007,02,24,03,05,5.20
2007,02,24,03,06,5.20
2007,02,24,03,07,5.20
2007,02,24,03,08,5.20
2007,02,24,03,09,5.20
2007,02,24,03,10,5.20
2007,02,24,03,11,5.20
2007,02,24,03,12,5.20
2007,02,24,03,13,5.20
2007,02,24,03,14,5.20
2007,02,24,03,15,5.20
2007,02,24,03,16,5.20
2007,02,24,03,17,5.30
2007,02,24,03,18,5.30
2007,02,24,03,19,5.30
2007,02,24,03,20,5.30
2007,02,24,03,21,5.30
2007,02,24,03,22,5.30
2007,02,24,03,23,5.30
2007,02,24,03,24,5.30
2007,02,24,03,25,5.30
2007,02,24,03,26,5.30
2007,02,24,03,27,5.30
2007,02,24,03,28,5.30
2007,02,24,03,29,5.30
2007,02,24,03,30,5.30
2007,02,24,03,31,5.30
2007,02,24,03,32,5.30
2007,02,24,03,33,5.30
2007,02,24,03,34,5.30
2007,02,24,03,35,5.30
2007,02,24,03,36,5.30
2007,02,24,03,37,5.30
2007,02,24,03,38,5.30
2007,02,24,03,39,5.30
2007,02,24,03,40,5.30
2007,02,24,03,41,5.30
2007,02,24,03,42,5.30
2007,02,24,03,43,5.30
2007,02,24,03,44,5.30
2007,02,24,03,45,5.30
2007,02,24,03,46,5.20
2007,02,24,03,47,5.20
2007,02,24,03,48,5.20
2007,02,24,03,49,5.20
2007,02,24,03,50,5.20
2007,02,24,03,51,5.20
2007,02,24,03,52,5.20
2007,02,24,03,53,5.20
2007,02,24,03,54,5.20
2007,02,24,03,55,5.20
2007,02,24,03,56,5.20
2007,02,24,03,57,5.20
2007,02,24,03,58,5.20
2007,02,24,03,59,5.20
2007,02,24,04,00,5.20
2007,02,24,04,01,5.20
2007,02,24,04,02,5.20
2007,02,24,04,03,5.20
2007,02,24,04,04,5.20
2007,02,24,04,05,5.20
2007,02,24,04,06,5.20
2007,02,24,04,07,5.30
2007,02,24,04,08,5.30
2007,02,24,04,09,5.30
2007,02,24,04,10,5.30
2007,02,24,04,11,5.30
2007,02,24,04,12,5.30
2007,02,24,04,13,5.30
2007,02,24,04,14,5.30
2007,02,24,04,15,5.30
2007,02,24,04,16,5.40
2007,02,24,04,17,5.40
2007,02,24,04,18,5.40
2007,02,24,04,19,5.40
2007,02,24,04,20,5.40
2007,02,24,04,21,5.40
2007,02,24,04,22,5.40
2007,02,24,04,23,5.40
2007,02,24,04,24,5.40
2007,02,24,04,25,5.40
2007,02,24,04,26,5.40
2007,02,24,04,27,5.40
2007,02,24,04,28,5.40
2007,02,24,04,29,5.40
2007,02,24,04,30,5.40
2007,02,24,04,31,5.40
2007,02,24,04,32,5.40
2007,02,24,04,33,5.40
2007,02,24,04,34,5.40
2007,02,24,04,35,5.40
2007,02,24,04,36,5.30
2007,02,24,04,37,5.30
2007,02,24,04,38,5.30
2007,02,24,04,39,5.30
2007,02,24,04,40,5.30
2007,02,24,04,41,5.30
2007,02,24,04,42,5.30
2007,02,24,04,43,5.30
2007,02,24,04,44,5.30
2007,02,24,04,45,5.30
2007,02,24,04,46,5.30
2007,02,24,04,47,5.30
2007,02,24,04,48,5.30
2007,02,24,04,49,5.30
2007,02,24,04,50,5.30
2007,02,24,04,51,5.30
2007,02,24,04,52,5.30
2007,02,24,04,53,5.30
2007,02,24,04,54,5.30
2007,02,24,04,55,5.30
2007,02,24,04,56,5.30
2007,02,24,04,57,5.30
2007,02,24,04,58,5.30
2007,02,24,04,59,5.20
2007,02,24,05,00,5.30
2007,02,24,05,01,5.30
2007,02,24,05,02,5.30
2007,02,24,05,03,5.30
2007,02,24,05,04,5.30
2007,02,24,05,05,5.30
2007,02,24,05,06,5.30
2007,02,24,05,07,5.30
2007,02,24,05,08,5.30
2007,02,24,05,09,5.20
2007,02,24,05,10,5.20
2007,02,24,05,11,5.20
2007,02,24,05,12,5.20
2007,02,24,05,13,5.20
2007,02,24,05,14,5.20
2007,02,24,05,15,5.20
2007,02,24,05,16,5.30
2007,02,24,05,17,5.30
2007,02,24,05,18,5.30
2007,02,24,05,19,5.30
2007,02,24,05,20,5.30
2007,02,24,05,21,5.30
2007,02,24,05,22,5.30
2007,02,24,05,23,5.30
2007,02,24,05,24,5.30
2007,02,24,05,25,5.30
2007,02,24,05,26,5.30
2007,02,24,05,27,5.30
2007,02,24,05,28,5.30
2007,02,24,05,29,5.30
2007,02,24,05,30,5.30
2007,02,24,05,31,5.30
2007,02,24,05,32,5.30
2007,02,24,05,33,5.30
2007,02,24,05,34,5.30
2007,02,24,05,35,5.30
2007,02,24,05,36,5.30
2007,02,24,05,37,5.20
2007,02,24,05,38,5.20
2007,02,24,05,39,5.20
2007,02,24,05,40,5.20
2007,02,24,05,41,5.20
2007,02,24,05,42,5.20
2007,02,24,05,43,5.20
2007,02,24,05,44,5.20
2007,02,24,05,45,5.20
2007,02,24,05,46,5.20
2007,02,24,05,47,5.20
2007,02,24,05,48,5.20
2007,02,24,05,49,5.20
2007,02,24,05,50,5.20
2007,02,24,05,51,5.20
2007,02,24,05,52,5.20
2007,02,24,05,53,5.20
2007,02,24,05,54,5.20
2007,02,24,05,55,5.20
2007,02,24,05,56,5.20
2007,02,24,05,57,5.20
2007,02,24,05,58,5.20
2007,02,24,05,59,5.20
2007,02,24,06,00,5.20
2007,02,24,06,01,5.20
2007,02,24,06,02,5.20
2007,02,24,06,03,5.20
2007,02,24,06,04,5.20
2007,02,24,06,05,5.10
2007,02,24,06,06,5.10
2007,02,24,06,07,5.10
2007,02,24,06,08,5.10
2007,02,24,06,09,5.10
2007,02,24,06,10,5.10
2007,02,24,06,11,5.10
2007,02,24,06,12,5.10
2007,02,24,06,13,5.10
2007,02,24,06,14,5.00
2007,02,24,06,15,5.00
2007,02,24,06,16,5.00
2007,02,24,06,17,5.00
2007,02,24,06,18,5.00
2007,02,24,06,19,5.00
2007,02,24,06,20,5.00
2007,02,24,06,21,4.90
2007,02,24,06,22,4.90
2007,02,24,06,23,4.90
2007,02,24,06,24,4.90
2007,02,24,06,25,4.90
2007,02,24,06,26,4.90
2007,02,24,06,27,4.90
2007,02,24,06,28,4.90
2007,02,24,06,29,4.90
2007,02,24,06,30,4.80
2007,02,24,06,31,4.80
2007,02,24,06,32,4.80
2007,02,24,06,33,4.80
2007,02,24,06,34,4.80
2007,02,24,06,35,4.80
2007,02,24,06,36,4.80
2007,02,24,06,37,4.80
2007,02,24,06,38,4.80
2007,02,24,06,39,4.80
2007,02,24,06,40,4.80
2007,02,24,06,41,4.80
2007,02,24,06,42,4.80
2007,02,24,06,43,4.80
2007,02,24,06,44,4.80
2007,02,24,06,45,4.80
2007,02,24,06,46,4.80
2007,02,24,06,47,4.80
2007,02,24,06,48,4.80
2007,02,24,06,49,4.80
2007,02,24,06,50,4.80
2007,02,24,06,51,4.80
2007,02,24,06,52,4.80
2007,02,24,06,53,4.80
2007,02,24,06,54,4.80
2007,02,24,06,55,4.80
2007,02,24,06,56,4.80
2007,02,24,06,57,4.80
2007,02,24,06,58,4.80
2007,02,24,06,59,4.70
2007,02,24,07,00,4.70
2007,02,24,07,01,4.70
2007,02,24,07,02,4.70
2007,02,24,07,03,4.70
2007,02,24,07,04,4.70
2007,02,24,07,05,4.70
2007,02,24,07,06,4.70
2007,02,24,07,07,4.70
2007,02,24,07,08,4.70
2007,02,24,07,09,4.70
2007,02,24,07,10,4.70
2007,02,24,07,11,4.60
2007,02,24,07,12,4.60
2007,02,24,07,13,4.60
2007,02,24,07,14,4.60
2007,02,24,07,15,4.60
2007,02,24,07,16,4.60
2007,02,24,07,17,4.60
2007,02,24,07,18,4.60
2007,02,24,07,19,4.50
2007,02,24,07,20,4.50
2007,02,24,07,21,4.50
2007,02,24,07,22,4.50
2007,02,24,07,23,4.50
2007,02,24,07,24,4.40
2007,02,24,07,25,4.40
2007,02,24,07,26,4.40
2007,02,24,07,27,4.40
2007,02,24,07,28,4.40
2007,02,24,07,29,4.40
2007,02,24,07,30,4.40
2007,02,24,07,31,4.40
2007,02,24,07,32,4.30
2007,02,24,07,33,4.30
2007,02,24,07,34,4.30
2007,02,24,07,35,4.30
2007,02,24,07,36,4.40
2007,02,24,07,37,4.40
2007,02,24,07,38,4.40
2007,02,24,07,39,4.40
2007,02,24,07,40,4.40
2007,02,24,07,41,4.40
2007,02,24,07,42,4.40
2007,02,24,07,43,4.40
2007,02,24,07,44,4.50
2007,02,24,07,45,4.50
2007,02,24,07,46,4.50
2007,02,24,07,47,4.50
2007,02,24,07,48,4.50
2007,02,24,07,49,4.50
2007,02,24,07,50,4.50
2007,02,24,07,51,4.50
2007,02,24,07,52,4.60
2007,02,24,07,53,4.60
2007,02,24,07,54,4.60
2007,02,24,07,55,4.60
2007,02,24,07,56,4.60
2007,02,24,07,57,4.60
2007,02,24,07,58,4.60
2007,02,24,07,59,4.60
2007,02,24,08,00,4.60
2007,02,24,08,01,4.70
2007,02,24,08,02,4.70
2007,02,24,08,03,4.70
2007,02,24,08,04,4.70
2007,02,24,08,05,4.70
2007,02,24,08,06,4.60
2007,02,24,08,07,4.60
2007,02,24,08,08,4.60
2007,02,24,08,09,4.60
2007,02,24,08,10,4.60
2007,02,24,08,11,4.60
2007,02,24,08,12,4.60
2007,02,24,08,13,4.60
2007,02,24,08,14,4.60
2007,02,24,08,15,4.60
2007,02,24,08,16,4.60
2007,02,24,08,17,4.60
2007,02,24,08,18,4.60
2007,02,24,08,19,4.60
2007,02,24,08,20,4.60
2007,02,24,08,21,4.60
2007,02,24,08,22,4.60
2007,02,24,08,23,4.60
2007,02,24,08,24,4.60
2007,02,24,08,25,4.60
2007,02,24,08,26,4.60
2007,02,24,08,27,4.60
2007,02,24,08,28,4.60
2007,02,24,08,29,4.50
2007,02,24,08,30,4.60
2007,02,24,08,31,4.60
2007,02,24,08,32,4.60
2007,02,24,08,33,4.60
2007,02,24,08,34,4.60
2007,02,24,08,35,4.60
2007,02,24,08,36,4.60
2007,02,24,08,37,4.60
2007,02,24,08,38,4.60
2007,02,24,08,39,4.60
2007,02,24,08,40,4.60
2007,02,24,08,41,4.60
2007,02,24,08,42,4.60
2007,02,24,08,43,4.60
2007,02,24,08,44,4.60
2007,02,24,08,45,4.60
2007,02,24,08,46,4.60
2007,02,24,08,47,4.60
2007,02,24,08,48,4.60
2007,02,24,08,49,4.60
2007,02,24,08,50,4.60
2007,02,24,08,51,4.60
2007,02,24,08,52,4.60
2007,02,24,08,53,4.60
2007,02,24,08,54,4.60
2007,02,24,08,55,4.60
2007,02,24,08,56,4.60
2007,02,24,08,57,4.60
2007,02,24,08,58,4.60
2007,02,24,08,59,4.50
2007,02,24,09,00,4.50
2007,02,24,09,01,4.50
2007,02,24,09,02,4.50
2007,02,24,09,03,4.50
2007,02,24,09,04,4.50
2007,02,24,09,05,4.50
2007,02,24,09,06,4.50
2007,02,24,09,07,4.50
2007,02,24,09,08,4.50
2007,02,24,09,09,4.50
2007,02,24,09,10,4.50
2007,02,24,09,11,4.50
2007,02,24,09,12,4.50
2007,02,24,09,13,4.60
2007,02,24,09,14,4.60
2007,02,24,09,15,4.60
2007,02,24,09,16,4.60
2007,02,24,09,17,4.60
2007,02,24,09,18,4.60
2007,02,24,09,19,4.60
2007,02,24,09,20,4.60
2007,02,24,09,21,4.60
2007,02,24,09,22,4.60
2007,02,24,09,23,4.60
2007,02,24,09,24,4.70
2007,02,24,09,25,4.70
2007,02,24,09,26,4.70
2007,02,24,09,27,4.70
2007,02,24,09,28,4.70
2007,02,24,09,29,4.80
2007,02,24,09,30,4.80
2007,02,24,09,31,4.80
2007,02,24,09,32,4.80
2007,02,24,09,33,4.80
2007,02,24,09,34,4.90
2007,02,24,09,35,4.90
2007,02,24,09,36,4.90
2007,02,24,09,37,4.80
2007,02,24,09,38,4.80
2007,02,24,09,39,4.80
2007,02,24,09,40,4.80
2007,02,24,09,41,4.80
2007,02,24,09,42,4.80
2007,02,24,09,43,4.80
2007,02,24,09,44,4.80
2007,02,24,09,45,4.80
2007,02,24,09,46,4.80
2007,02,24,09,47,4.80
2007,02,24,09,48,4.90
2007,02,24,09,49,4.90
2007,02,24,09,50,4.90
2007,02,24,09,51,4.90
2007,02,24,09,52,4.90
2007,02,24,09,53,4.90
2007,02,24,09,54,5.00
2007,02,24,09,55,5.00
2007,02,24,09,56,5.00
2007,02,24,09,57,5.00
2007,02,24,09,58,5.10
2007,02,24,09,59,5.10
2007,02,24,10,00,5.10
2007,02,24,10,01,5.10
2007,02,24,10,02,5.00
2007,02,24,10,03,5.00
2007,02,24,10,04,5.00
2007,02,24,10,05,5.10
2007,02,24,10,06,5.10
2007,02,24,10,07,5.10
2007,02,24,10,08,5.10
2007,02,24,10,09,5.10
2007,02,24,10,10,5.10
2007,02,24,10,11,5.10
2007,02,24,10,12,5.10
2007,02,24,10,13,5.10
2007,02,24,10,14,5.10
2007,02,24,10,15,5.10
2007,02,24,10,16,5.10
2007,02,24,10,17,5.10
2007,02,24,10,18,5.10
2007,02,24,10,19,5.10
2007,02,24,10,20,5.10
2007,02,24,10,21,5.10
2007,02,24,10,22,5.10
2007,02,24,10,23,5.10
2007,02,24,10,24,5.10
2007,02,24,10,25,5.10
2007,02,24,10,26,5.10
2007,02,24,10,27,5.10
2007,02,24,10,28,5.10
2007,02,24,10,29,5.10
2007,02,24,10,30,5.20
2007,02,24,10,31,5.20
2007,02,24,10,32,5.20
2007,02,24,10,33,5.20
2007,02,24,10,34,5.20
2007,02,24,10,35,5.20
2007,02,24,10,36,5.20
2007,02,24,10,37,5.20
2007,02,24,10,38,5.20
2007,02,24,10,39,5.20
2007,02,24,10,40,5.20
2007,02,24,10,41,5.20
2007,02,24,10,42,5.20
2007,02,24,10,43,5.20
2007,02,24,10,44,5.20
2007,02,24,10,45,5.20
2007,02,24,10,46,5.20
2007,02,24,10,47,5.20
2007,02,24,10,48,5.20
2007,02,24,10,49,5.20
2007,02,24,10,50,5.20
2007,02,24,10,51,5.20
2007,02,24,10,52,5.20
2007,02,24,10,53,5.20
2007,02,24,10,54,5.20
2007,02,24,10,55,5.20
2007,02,24,10,56,5.30
2007,02,24,10,57,5.30
2007,02,24,10,58,5.30
2007,02,24,10,59,5.30
2007,02,24,11,00,5.30
2007,02,24,11,01,5.30
2007,02,24,11,02,5.30
2007,02,24,11,03,5.30
2007,02,24,11,04,5.30
2007,02,24,11,05,5.30
2007,02,24,11,06,5.30
2007,02,24,11,07,5.30
2007,02,24,11,08,5.30
2007,02,24,11,09,5.30
2007,02,24,11,10,5.30
2007,02,24,11,11,5.30
2007,02,24,11,12,5.20
2007,02,24,11,13,5.30
2007,02,24,11,14,5.30
2007,02,24,11,15,5.30
2007,02,24,11,16,5.20
2007,02,24,11,17,5.20
2007,02,24,11,18,5.20
2007,02,24,11,19,5.10
2007,02,24,11,20,5.10
2007,02,24,11,21,5.10
2007,02,24,11,22,5.10
2007,02,24,11,23,5.00
2007,02,24,11,24,5.00
2007,02,24,11,25,5.00
2007,02,24,11,26,5.00
2007,02,24,11,27,5.00
2007,02,24,11,28,5.00
2007,02,24,11,29,5.10
2007,02,24,11,30,5.10
2007,02,24,11,31,5.10
2007,02,24,11,32,5.10
2007,02,24,11,33,5.20
2007,02,24,11,34,5.20
2007,02,24,11,35,5.20
2007,02,24,11,36,5.20
2007,02,24,11,37,5.20
2007,02,24,11,38,5.20
2007,02,24,11,39,5.20
2007,02,24,11,40,5.20
2007,02,24,11,41,5.20
2007,02,24,11,42,5.30
2007,02,24,11,43,5.30
2007,02,24,11,44,5.30
2007,02,24,11,45,5.30
2007,02,24,11,46,5.30
2007,02,24,11,47,5.30
2007,02,24,11,48,5.30
2007,02,24,11,49,5.30
2007,02,24,11,50,5.30
2007,02,24,11,51,5.30
2007,02,24,11,52,5.30
2007,02,24,11,53,5.30
2007,02,24,11,54,5.30
2007,02,24,11,55,5.30
2007,02,24,11,56,5.40
2007,02,24,11,57,5.40
2007,02,24,11,58,5.40
2007,02,24,11,59,5.40
2007,02,24,12,00,5.40
2007,02,24,12,01,5.40
2007,02,24,12,02,5.40
2007,02,24,12,03,5.40
2007,02,24,12,04,5.40
2007,02,24,12,05,5.40
2007,02,24,12,06,5.40
2007,02,24,12,07,5.40
2007,02,24,12,08,5.40
2007,02,24,12,09,5.40
2007,02,24,12,10,5.40
2007,02,24,12,11,5.40
2007,02,24,12,12,5.40
2007,02,24,12,13,5.40
2007,02,24,12,14,5.40
2007,02,24,12,15,5.40
2007,02,24,12,16,5.40
2007,02,24,12,17,5.40
2007,02,24,12,18,5.40
2007,02,24,12,19,5.40
2007,02,24,12,20,5.30
2007,02,24,12,21,5.30
2007,02,24,12,22,5.30
2007,02,24,12,23,5.30
2007,02,24,12,24,5.30
2007,02,24,12,25,5.30
2007,02,24,12,26,5.30
2007,02,24,12,27,5.30
2007,02,24,12,28,5.40
2007,02,24,12,29,5.40
2007,02,24,12,30,5.40
2007,02,24,12,31,5.40
2007,02,24,12,32,5.40
2007,02,24,12,33,5.40
2007,02,24,12,34,5.40
2007,02,24,12,35,5.30
2007,02,24,12,36,5.30
2007,02,24,12,37,5.30
2007,02,24,12,38,5.30
2007,02,24,12,39,5.30
2007,02,24,12,40,5.40
2007,02,24,12,41,5.40
2007,02,24,12,42,5.40
2007,02,24,12,43,5.40
2007,02,24,12,44,5.40
2007,02,24,12,45,5.40
2007,02,24,12,46,5.40
2007,02,24,12,47,5.40
2007,02,24,12,48,5.40
2007,02,24,12,49,5.50
2007,02,24,12,50,5.50
2007,02,24,12,51,5.50
2007,02,24,12,52,5.50
2007,02,24,12,53,5.50
2007,02,24,12,54,5.60
2007,02,24,12,55,5.60
2007,02,24,12,56,5.60
2007,02,24,12,57,5.60
2007,02,24,12,58,5.60
2007,02,24,12,59,5.70
2007,02,24,13,00,5.70
2007,02,24,13,01,5.70
2007,02,24,13,02,5.80
2007,02,24,13,03,5.80
2007,02,24,13,04,5.80
2007,02,24,13,05,5.80
2007,02,24,13,06,5.80
2007,02,24,13,07,5.80
2007,02,24,13,08,5.80
2007,02,24,13,09,5.80
2007,02,24,13,10,5.80
2007,02,24,13,11,5.80
2007,02,24,13,12,5.80
2007,02,24,13,13,5.80
2007,02,24,13,14,5.80
2007,02,24,13,15,5.90
2007,02,24,13,16,5.90
2007,02,24,13,17,6.00
2007,02,24,13,18,6.00
2007,02,24,13,19,6.10
2007,02,24,13,20,6.10
2007,02,24,13,21,6.10
2007,02,24,13,22,6.10
2007,02,24,13,23,6.10
2007,02,24,13,24,6.10
2007,02,24,13,25,6.10
2007,02,24,13,26,6.10
2007,02,24,13,27,6.10
2007,02,24,13,28,6.10
2007,02,24,13,29,6.10
2007,02,24,13,30,6.10
2007,02,24,13,31,6.10
2007,02,24,13,32,6.10
2007,02,24,13,33,6.10
2007,02,24,13,34,6.10
2007,02,24,13,35,6.10
2007,02,24,13,36,6.10
2007,02,24,13,37,6.10
2007,02,24,13,38,6.10
2007,02,24,13,39,6.10
2007,02,24,13,40,6.10
2007,02,24,13,41,6.10
2007,02,24,13,42,6.10
2007,02,24,13,43,6.10
2007,02,24,13,44,6.00
2007,02,24,13,45,6.00
2007,02,24,13,46,6.00
2007,02,24,13,47,6.00
2007,02,24,13,48,6.00
2007,02,24,13,49,6.00
2007,02,24,13,50,6.00
2007,02,24,13,51,6.00
2007,02,24,13,52,6.00
2007,02,24,13,53,5.90
2007,02,24,13,54,6.00
2007,02,24,13,55,6.00
2007,02,24,13,56,6.00
2007,02,24,13,57,6.00
2007,02,24,13,58,6.00
2007,02,24,13,59,6.00
2007,02,24,14,00,6.00
2007,02,24,14,01,6.00
2007,02,24,14,02,6.00
2007,02,24,14,03,5.90
2007,02,24,14,04,5.90
2007,02,24,14,05,5.90
2007,02,24,14,06,5.90
2007,02,24,14,07,5.90
2007,02,24,14,08,5.90
2007,02,24,14,09,5.90
2007,02,24,14,10,6.00
2007,02,24,14,11,6.00
2007,02,24,14,12,6.00
2007,02,24,14,13,6.00
2007,02,24,14,14,6.10
2007,02,24,14,15,6.10
2007,02,24,14,16,6.10
2007,02,24,14,17,6.10
2007,02,24,14,18,6.10
2007,02,24,14,19,6.10
2007,02,24,14,20,6.20
2007,02,24,14,21,6.20
2007,02,24,14,22,6.20
2007,02,24,14,23,6.20
2007,02,24,14,24,6.20
2007,02,24,14,25,6.20
2007,02,24,14,26,6.30
2007,02,24,14,27,6.30
2007,02,24,14,28,6.30
2007,02,24,14,29,6.30
2007,02,24,14,30,6.30
2007,02,24,14,31,6.30
2007,02,24,14,32,6.30
2007,02,24,14,33,6.30
2007,02,24,14,34,6.30
2007,02,24,14,35,6.30
2007,02,24,14,36,6.30
2007,02,24,14,37,6.30
2007,02,24,14,38,6.40
2007,02,24,14,39,6.40
2007,02,24,14,40,6.40
2007,02,24,14,41,6.40
2007,02,24,14,42,6.40
2007,02,24,14,43,6.40
2007,02,24,14,44,6.40
2007,02,24,14,45,6.40
2007,02,24,14,46,6.40
2007,02,24,14,47,6.40
2007,02,24,14,48,6.40
2007,02,24,14,49,6.40
2007,02,24,14,50,6.40
2007,02,24,14,51,6.40
2007,02,24,14,52,6.50
2007,02,24,14,53,6.50
2007,02,24,14,54,6.50
2007,02,24,14,55,6.50
2007,02,24,14,56,6.50
2007,02,24,14,57,6.50
2007,02,24,14,58,6.50
2007,02,24,14,59,6.50
2007,02,24,15,00,6.50
2007,02,24,15,01,6.50
2007,02,24,15,02,6.50
2007,02,24,15,03,6.40
2007,02,24,15,04,6.40
2007,02,24,15,05,6.40
2007,02,24,15,06,6.40
2007,02,24,15,07,6.40
2007,02,24,15,08,6.40
2007,02,24,15,09,6.40
2007,02,24,15,10,6.40
2007,02,24,15,11,6.30
2007,02,24,15,12,6.30
2007,02,24,15,13,6.30
2007,02,24,15,14,6.30
2007,02,24,15,15,6.30
2007,02,24,15,16,6.40
2007,02,24,15,17,6.40
2007,02,24,15,18,6.40
2007,02,24,15,19,6.40
2007,02,24,15,20,6.40
2007,02,24,15,21,6.50
2007,02,24,15,22,6.50
2007,02,24,15,23,6.60
2007,02,24,15,24,6.60
2007,02,24,15,25,6.70
2007,02,24,15,26,6.70
2007,02,24,15,27,6.80
2007,02,24,15,28,6.80
2007,02,24,15,29,6.80
2007,02,24,15,30,6.80
2007,02,24,15,31,6.80
2007,02,24,15,32,6.80
2007,02,24,15,33,6.80
2007,02,24,15,34,6.80
2007,02,24,15,35,6.70
2007,02,24,15,36,6.70
2007,02,24,15,37,6.70
2007,02,24,15,38,6.70
2007,02,24,15,39,6.70
2007,02,24,15,40,6.70
2007,02,24,15,41,6.80
2007,02,24,15,42,6.80
2007,02,24,15,43,6.80
2007,02,24,15,44,6.70
2007,02,24,15,45,6.70
2007,02,24,15,46,6.70
2007,02,24,15,47,6.70
2007,02,24,15,48,6.70
2007,02,24,15,49,6.80
2007,02,24,15,50,6.80
2007,02,24,15,51,6.80
2007,02,24,15,52,6.80
2007,02,24,15,53,6.80
2007,02,24,15,54,6.80
2007,02,24,15,55,6.80
2007,02,24,15,56,6.80
2007,02,24,15,57,6.80
2007,02,24,15,58,6.80
2007,02,24,15,59,6.80
2007,02,24,16,00,6.80
2007,02,24,16,01,6.80
2007,02,24,16,02,6.80
2007,02,24,16,03,6.80
2007,02,24,16,04,6.80
2007,02,24,16,05,6.80
2007,02,24,16,06,6.80
2007,02,24,16,07,6.80
2007,02,24,16,08,6.80
2007,02,24,16,09,6.80
2007,02,24,16,10,6.80
2007,02,24,16,11,6.80
2007,02,24,16,12,6.80
2007,02,24,16,13,6.80
2007,02,24,16,14,6.80
2007,02,24,16,15,6.80
2007,02,24,16,16,6.80
2007,02,24,16,17,6.80
2007,02,24,16,18,6.80
2007,02,24,16,19,6.80
2007,02,24,16,20,6.80
2007,02,24,16,21,6.80
2007,02,24,16,22,6.80
2007,02,24,16,23,6.80
2007,02,24,16,24,6.80
2007,02,24,16,25,6.80
2007,02,24,16,26,6.80
2007,02,24,16,27,6.80
2007,02,24,16,28,6.80
2007,02,24,16,29,6.80
2007,02,24,16,30,6.80
2007,02,24,16,31,6.80
2007,02,24,16,32,6.80
2007,02,24,16,33,6.80
2007,02,24,16,34,6.90
2007,02,24,16,35,6.90
2007,02,24,16,36,6.90
2007,02,24,16,37,6.90
2007,02,24,16,38,6.90
2007,02,24,16,39,6.90
2007,02,24,16,40,6.90
2007,02,24,16,41,6.90
2007,02,24,16,42,6.90
2007,02,24,16,43,6.90
2007,02,24,16,44,6.90
2007,02,24,16,45,6.90
2007,02,24,16,46,6.90
2007,02,24,16,47,6.90
2007,02,24,16,48,6.90
2007,02,24,16,49,6.90
2007,02,24,16,50,6.90
2007,02,24,16,51,6.90
2007,02,24,16,52,7.00
2007,02,24,16,53,7.00
2007,02,24,16,54,7.00
2007,02,24,16,55,7.00
2007,02,24,16,56,7.00
2007,02,24,16,57,7.00
2007,02,24,16,58,7.00
2007,02,24,16,59,7.00
2007,02,24,17,00,7.00
2007,02,24,17,01,7.00
2007,02,24,17,02,7.00
2007,02,24,17,03,7.00
2007,02,24,17,04,7.00
2007,02,24,17,05,7.00
2007,02,24,17,06,7.00
2007,02,24,17,07,6.90
2007,02,24,17,08,6.90
2007,02,24,17,09,6.90
2007,02,24,17,10,6.90
2007,02,24,17,11,6.90
2007,02,24,17,12,6.90
2007,02,24,17,13,6.90
2007,02,24,17,14,6.90
2007,02,24,17,15,6.90
2007,02,24,17,16,6.90
2007,02,24,17,17,6.90
2007,02,24,17,18,6.90
2007,02,24,17,19,6.80
2007,02,24,17,20,6.80
2007,02,24,17,21,6.80
2007,02,24,17,22,6.80
2007,02,24,17,23,6.80
2007,02,24,17,24,6.80
2007,02,24,17,25,6.80
2007,02,24,17,26,6.70
2007,02,24,17,27,6.70
2007,02,24,17,28,6.80
2007,02,24,17,29,6.80
2007,02,24,17,30,6.70
2007,02,24,17,31,6.70
2007,02,24,17,32,6.70
2007,02,24,17,33,6.70
2007,02,24,17,34,6.70
2007,02,24,17,35,6.70
2007,02,24,17,36,6.70
2007,02,24,17,37,6.70
2007,02,24,17,38,6.70
2007,02,24,17,39,6.70
2007,02,24,17,40,6.70
2007,02,24,17,41,6.70
2007,02,24,17,42,6.70
2007,02,24,17,43,6.70
2007,02,24,17,44,6.70
2007,02,24,17,45,6.70
2007,02,24,17,46,6.70
2007,02,24,17,47,6.70
2007,02,24,17,48,6.70
2007,02,24,17,49,6.70
2007,02,24,17,50,6.70
2007,02,24,17,51,6.70
2007,02,24,17,52,6.70
2007,02,24,17,53,6.70
2007,02,24,17,54,6.70
2007,02,24,17,55,6.70
2007,02,24,17,56,6.70
2007,02,24,17,57,6.70
2007,02,24,17,58,6.70
2007,02,24,17,59,6.70
2007,02,24,18,00,6.70
2007,02,24,18,01,6.70
2007,02,24,18,02,6.70
2007,02,24,18,03,6.70
2007,02,24,18,04,6.70
2007,02,24,18,05,6.70
2007,02,24,18,06,6.70